• In Romania
  • List of Countries
  • For 7 days
  • Water Temperature
  • Satellite Maps
  • Weather Map
  • Weather Widgets
  • user-avatar
    Login

    Hourly Weather Adelaide

    Today, 16 July, Monday

    Time Temperature Precipitation Wind Pressure Humidity
    00:00 +13°C° 0 mm 6 mps 751 mmHg 53%
    01:00 +13°C° 0.1 mm 6 mps 751 mmHg 60%
    02:00 +13°C° 0.1 mm 6 mps 751 mmHg 67%
    03:00 +12°C° 0 mm 7 mps 751 mmHg 76%
    04:00 +12°C° 0.3 mm 7 mps 751 mmHg 77%
    05:00 +12°C° 0.3 mm 7 mps 751 mmHg 79%
    06:00 +12°C° 0.3 mm 7 mps 752 mmHg 81%
    07:00 +12°C° 0.1 mm 7 mps 752 mmHg 77%
    08:00 +13°C° 0.1 mm 6 mps 752 mmHg 74%
    09:00 +13°C° 0 mm 6 mps 753 mmHg 66%
    10:00 +14°C° 0 mm 6 mps 753 mmHg 63%
    11:00 +15°C° 0 mm 6 mps 753 mmHg 60%
    12:00 +15°C° 0 mm 6 mps 753 mmHg 57%
    13:00 +15°C° 0 mm 6 mps 753 mmHg 58%
    14:00 +16°C° 0 mm 6 mps 753 mmHg 60%
    15:00 +15°C° 0 mm 6 mps 752 mmHg 62%
    16:00 +15°C° 0 mm 6 mps 752 mmHg 65%
    17:00 +14°C° 0 mm 6 mps 752 mmHg 68%
    18:00 +13°C° 0 mm 5 mps 752 mmHg 71%
    19:00 +13°C° 0 mm 6 mps 752 mmHg 68%
    20:00 +13°C° 0 mm 6 mps 752 mmHg 66%
    21:00 +12°C° 0 mm 7 mps 752 mmHg 63%
    22:00 +12°C° 0 mm 7 mps 752 mmHg 64%
    23:00 +12°C° 0 mm 7 mps 751 mmHg 64%

    Tomorrow, 17 July, Tuesday

    Time Temperature Precipitation Wind Pressure Humidity
    00:00 +12°C° 0 mm 8 mps 751 mmHg 65%
    01:00 +13°C° 0 mm 8 mps 750 mmHg 62%
    02:00 +13°C° 0 mm 9 mps 750 mmHg 60%
    03:00 +13°C° 0 mm 9 mps 749 mmHg 57%
    04:00 +13°C° 0 mm 10 mps 749 mmHg 56%
    05:00 +13°C° 0 mm 10 mps 748 mmHg 55%
    06:00 +13°C° 0 mm 11 mps 748 mmHg 54%
    07:00 +13°C° 0.8 mm 12 mps 749 mmHg 59%
    08:00 +13°C° 0.8 mm 13 mps 749 mmHg 65%
    09:00 +13°C° 0.8 mm 13 mps 750 mmHg 70%
    10:00 +13°C° 0.3 mm 13 mps 751 mmHg 66%
    11:00 +13°C° 0.3 mm 13 mps 752 mmHg 62%
    12:00 +13°C° 0.3 mm 12 mps 752 mmHg 58%
    13:00 +13°C° 0 mm 11 mps 753 mmHg 55%
    14:00 +13°C° 0 mm 11 mps 754 mmHg 53%
    15:00 +13°C° 0 mm 10 mps 754 mmHg 50%
    16:00 +12°C° 0 mm 9 mps 755 mmHg 53%
    17:00 +11°C° 0 mm 8 mps 756 mmHg 55%
    18:00 +11°C° 0 mm 7 mps 757 mmHg 58%
    19:00 +11°C° 0 mm 6 mps 757 mmHg 60%
    20:00 +10°C° 0 mm 6 mps 758 mmHg 62%
    21:00 +10°C° 0 mm 5 mps 758 mmHg 64%
    22:00 +10°C° 0.1 mm 5 mps 758 mmHg 67%
    23:00 +10°C° 0.1 mm 5 mps 758 mmHg 70%

    Day after tomorrow, 18 July, Wednesday

    Time Temperature Precipitation Wind Pressure Humidity
    00:00 +10°C° 0.1 mm 5 mps 758 mmHg 73%
    01:00 +9°C° 0 mm 5 mps 758 mmHg 73%
    02:00 +9°C° 0 mm 5 mps 758 mmHg 73%
    03:00 +9°C° 0 mm 5 mps 758 mmHg 74%
    04:00 +9°C° 0 mm 6 mps 758 mmHg 75%
    05:00 +10°C° 0 mm 6 mps 758 mmHg 77%
    06:00 +10°C° 0 mm 6 mps 758 mmHg 78%
    07:00 +10°C° 0 mm 7 mps 758 mmHg 75%
    08:00 +11°C° 0 mm 7 mps 758 mmHg 72%
    09:00 +12°C° 0 mm 8 mps 759 mmHg 70%
    10:00 +13°C° 0 mm 8 mps 758 mmHg 66%
    11:00 +15°C° 0 mm 8 mps 758 mmHg 62%
    12:00 +16°C° 0 mm 8 mps 757 mmHg 58%
    13:00 +16°C° 0 mm 8 mps 757 mmHg 57%
    14:00 +16°C° 0 mm 8 mps 756 mmHg 55%
    15:00 +16°C° 0 mm 8 mps 756 mmHg 53%
    16:00 +15°C° 0 mm 7 mps 756 mmHg 55%
    17:00 +14°C° 0 mm 6 mps 756 mmHg 58%
    18:00 +13°C° 0 mm 5 mps 756 mmHg 60%
    19:00 +13°C° 0 mm 5 mps 756 mmHg 59%
    20:00 +13°C° 0 mm 6 mps 756 mmHg 59%
    21:00 +13°C° 0 mm 6 mps 756 mmHg 58%
    22:00 +13°C° 0 mm 6 mps 755 mmHg 58%
    23:00 +13°C° 0 mm 6 mps 755 mmHg 57%

    19 July, Thursday

    Time Temperature Precipitation Wind Pressure Humidity
    00:00 +12°C° 0 mm 7 mps 754 mmHg 57%
    01:00 +12°C° 0 mm 7 mps 754 mmHg 57%
    02:00 +12°C° 0 mm 7 mps 753 mmHg 57%
    03:00 +12°C° 0 mm 7 mps 753 mmHg 58%
    04:00 +12°C° 0 mm 7 mps 752 mmHg 59%
    05:00 +12°C° 0 mm 8 mps 752 mmHg 60%
    06:00 +12°C° 0 mm 8 mps 752 mmHg 61%
    07:00 +13°C° 0 mm 8 mps 752 mmHg 59%
    08:00 +13°C° 0 mm 9 mps 752 mmHg 57%
    09:00 +14°C° 0 mm 10 mps 751 mmHg 54%
    10:00 +15°C° 0.7 mm 9 mps 751 mmHg 58%
    11:00 +15°C° 0.7 mm 9 mps 751 mmHg 63%
    12:00 +13°C° 0.7 mm 8 mps 750 mmHg 67%
    13:00 +12°C° 2.2 mm 7 mps 750 mmHg 72%
    14:00 +10°C° 2.2 mm 7 mps 750 mmHg 78%
    15:00 +8°C° 2.2 mm 6 mps 751 mmHg 83%
    16:00 +8°C° 0.8 mm 6 mps 751 mmHg 82%
    17:00 +8°C° 0.8 mm 6 mps 752 mmHg 82%
    18:00 +8°C° 0.8 mm 6 mps 753 mmHg 81%
    19:00 +8°C° 0.3 mm 6 mps 753 mmHg 79%
    20:00 +8°C° 0.3 mm 6 mps 754 mmHg 77%
    21:00 +7°C° 0.3 mm 6 mps 754 mmHg 75%
    22:00 +7°C° 0.2 mm 6 mps 754 mmHg 75%
    23:00 +7°C° 0.2 mm 6 mps 755 mmHg 75%

    20 July, Friday

    Time Temperature Precipitation Wind Pressure Humidity
    00:00 +7°C° 0.2 mm 6 mps 755 mmHg 75%
    01:00 +7°C° 0.3 mm 6 mps 756 mmHg 75%
    02:00 +7°C° 0.3 mm 6 mps 756 mmHg 76%
    03:00 +7°C° 0.3 mm 6 mps 756 mmHg 76%
    04:00 +7°C° 0 mm 6 mps 757 mmHg 76%
    05:00 +7°C° 0 mm 6 mps 757 mmHg 76%
    06:00 +7°C° 0 mm 6 mps 758 mmHg 76%
    07:00 +8°C° 0.1 mm 6 mps 759 mmHg 74%
    08:00 +9°C° 0.1 mm 7 mps 759 mmHg 72%
    09:00 +10°C° 0.1 mm 7 mps 760 mmHg 69%
    10:00 +11°C° 0.1 mm 7 mps 760 mmHg 65%
    11:00 +11°C° 0.1 mm 7 mps 760 mmHg 61%
    12:00 +12°C° 0.1 mm 7 mps 760 mmHg 57%
    13:00 +13°C° 0 mm 6 mps 760 mmHg 56%
    14:00 +13°C° 0 mm 5 mps 761 mmHg 54%
    15:00 +13°C° 0 mm 5 mps 761 mmHg 53%
    16:00 +12°C° 0 mm 4 mps 761 mmHg 57%
    17:00 +11°C° 0 mm 3 mps 761 mmHg 62%
    18:00 +10°C° 0 mm 3 mps 762 mmHg 66%
    19:00 +9°C° 0 mm 3 mps 762 mmHg 69%
    20:00 +9°C° 0 mm 3 mps 762 mmHg 71%
    21:00 +9°C° 0 mm 3 mps 763 mmHg 73%
    22:00 +9°C° 0 mm 3 mps 763 mmHg 75%
    23:00 +8°C° 0 mm 3 mps 763 mmHg 76%

    21 July, Saturday

    Time Temperature Precipitation Wind Pressure Humidity
    00:00 +8°C° 0 mm 3 mps 762 mmHg 78%
    01:00 +8°C° 0 mm 3 mps 762 mmHg 78%
    02:00 +9°C° 0 mm 3 mps 762 mmHg 78%
    03:00 +8°C° 0 mm 4 mps 762 mmHg 78%
    04:00 +8°C° 0 mm 4 mps 762 mmHg 79%
    05:00 +8°C° 0 mm 5 mps 762 mmHg 79%
    06:00 +8°C° 0 mm 5 mps 762 mmHg 80%
    07:00 +9°C° 0 mm 5 mps 762 mmHg 76%
    08:00 +10°C° 0 mm 6 mps 762 mmHg 72%
    09:00 +10°C° 0 mm 6 mps 763 mmHg 68%
    10:00 +11°C° 0 mm 6 mps 762 mmHg 64%
    11:00 +12°C° 0 mm 7 mps 761 mmHg 59%
    12:00 +14°C° 0 mm 7 mps 761 mmHg 55%
    13:00 +14°C° 0 mm 7 mps 760 mmHg 53%
    14:00 +14°C° 0 mm 7 mps 760 mmHg 51%
    15:00 +14°C° 0 mm 6 mps 759 mmHg 50%
    16:00 +13°C° 0 mm 6 mps 759 mmHg 52%
    17:00 +11°C° 0 mm 6 mps 759 mmHg 55%
    18:00 +10°C° 0 mm 5 mps 759 mmHg 57%
    19:00 +10°C° 0 mm 6 mps 759 mmHg 55%
    20:00 +10°C° 0 mm 6 mps 759 mmHg 53%
    21:00 +10°C° 0 mm 7 mps 759 mmHg 51%
    22:00 +10°C° 0 mm 7 mps 758 mmHg 50%
    23:00 +9°C° 0 mm 7 mps 758 mmHg 49%
    Show more